CZ-4B DEB, 40532

Orbit data source: Space-Track

CZ-4B DEB, 40532 is space debris in LEO originally from a launch on Fri, 25 Oct 2013 UTC launched from the Jiuquan Satellite Launch Center, China (JSC). Debris objects in space refer to the collection of defunct objects orbiting the Earth. Examples of debris include non-operational satellites, rocket bodies, and fragments generated from explosions, collisions, or faulty payload assembly.

Loading next visibility...
Identifier
40532, 2013-057E
Orbit
LEO
Country
Flag of CNCN / PRC
Related business
Manufacturer
SAST
Mission
Spacecraft
Bus & Motor
Unknown
Mass
Unknown
Launch date (UTC)
2013-10-25 (12 years ago)
Launch vehicle
Unknown
Launch site
Jiuquan Satellite Launch Center, China (JSC)
Object type
Payload
Rocket body
Debris
Shape & HBR
Unknown shape, 0.1 m
Radar Cross Section
Small (<0.1 m²)

Expand to show TLE details & history
Last TLE update: 2 days ago

TLE from 2 days ago
0 CZ-4B DEB
1 40532U 13057E   25305.81715272  .00004030  00000-0  74906-3 0  9994
2 40532  74.8681 244.6453 0185757 118.5757 243.4246 14.54824870558405
Epoch: 2025-11-01T19:36Z
TLE epoch observation values (Epoch: 2025-11-01T19:36:41.995Z)
Latitude
0.00008°
Longitude
-90.87145°
Altitude
773.463 km
Speed
7.435 km/s
True Right ascension
16h 18m 34s
True Declination
0° 00' 00"
Sunlit
Object was in daylight at epoch
Visualization orbit readout
Latitude
Unknown
Longitude
Unknown
Altitude
Unknown
Speed
Unknown
Apparent Right ascension
Unknown
Apparent Declination
Unknown
Sunlit
N/A
Visualization observer readout
Local Sidereal Time
17:54:59
Azimuth
Unknown
Elevation
Unknown
Doppler factor
Unknown
Orbital elements
Apogee altitude
839.086 km
Perigee altitude
575.846 km
Semi-major axis
7,085.603 km
Eccentricity
0.01858
Inclination
74.8681°
RAAN
244.6453°
Arg. of periapsis
118.5757°
True anomaly
241.5408°
Mean anomaly
243.4246°
Eccentric anomaly
242.48071°
Mean motion
3.63897 °/min
Orbital period
98.93 mins
BSTAR
0.00074906
Loading maneuver chart data...
Computing Atmospheric mass density...
Loading historical data...
Loading historical data...
Loading historical data...
Loading historical data...
Loading historical data...
Loading historical data...
Loading historical data...
Other satellites on launch #57 in the year 2013 (2013-10-25 UTC)

Documentation

Showing up to 5 results
|